Change the Weather History Date:

Monday, September 2, 2013

  Actual Average (KMLT) Record (KMLT)
Temperature  
Mean Temperature 60 °F 62 °F  
Max Temperature 64 °F 73 °F 92 °F (1937)
Min Temperature 57 °F 52 °F 35 °F (1906)
Degree Days  
Heating Degree Days 4 4  
Month to date heating degree days 8  
Since 1 July heating degree days 87  
Cooling Degree Days 0 2  
Month to date cooling degree days 4  
Year to date cooling degree days 255  
Growing Degree Days 10 (Base 50)    
Moisture  
Dew Point 58 °F    
Average Humidity 94    
Maximum Humidity 100    
Minimum Humidity 73    
Precipitation  
Precipitation 1.11 in 0.11 in 1.69 in (1965)
Month to date precipitation 0.21  
Year to date precipitation 27.14  
Sea Level Pressure  
Sea Level Pressure 29.89 in    
Wind  
Wind Speed 11 mph (ESE)    
Max Wind Speed 18 mph    
Max Gust Speed 25 mph    
T = Trace of Precipitation, MM = Missing Value Source: NWS Daily Summary

Daily Weather History Graph

Daily Weather History Graph

Search for Another Location

Airport or City:

Trip Planner

Search our weather history database for the weather conditions in past years. The results will help you decide how hot, cold, wet, or windy it might be!

Date:

Astronomy

Sep. 02, 2013 Rise Set
Actual Time 6:01 AM EDT 7:13 PM EDT
Civil Twilight 5:30 AM EDT 7:44 PM EDT
Nautical Twilight 4:54 AM EDT 8:20 PM EDT
Astronomical Twilight 4:15 AM EDT 8:59 PM EDT
Moon 3:09 AM EDT (9/2) 5:28 PM EDT (9/2)
Length of Visible Light 14h 13m
Length of Day
13h 12m
Waning Crescent, 8% of the Moon is Illuminated
Sep 2
Waning Crescent
Sep 5
New
Sep 12
First Quarter
Sep 19
Full
Sep 26
Last Quarter

Hourly Weather History & Observations

Time (EDT) Temp. Dew Point Humidity Pressure Visibility Wind Dir Wind Speed Gust Speed Precip Events Conditions
12:56 AM 64.9 °F 55.9 °F 73% 29.95 in - East 9.2 mph - N/A   Unknown
1:56 AM 64.9 °F 57.9 °F 78% 29.94 in - East 8.1 mph 16.1 mph N/A   Unknown
2:56 AM 64.0 °F 62.1 °F 93% 29.95 in - East 8.1 mph - N/A   Unknown
3:56 AM 64.0 °F 62.1 °F 93% 29.94 in - East 9.2 mph - 0.02 in   Unknown
4:56 AM 62.1 °F 61.0 °F 96% 29.94 in - East 13.8 mph - 0.01 in   Unknown
5:56 AM 61.0 °F 60.1 °F 97% 29.93 in - East 16.1 mph 25.3 mph 0.01 in   Unknown
6:56 AM 60.1 °F 59.0 °F 96% 29.95 in - ESE 11.5 mph 23.0 mph N/A   Unknown
7:56 AM 59.0 °F 57.9 °F 96% 29.96 in - ESE 10.4 mph 20.7 mph N/A   Unknown
8:56 AM 57.9 °F 57.0 °F 97% 29.95 in - East 16.1 mph 23.0 mph 0.09 in   Unknown
9:56 AM 57.9 °F 55.9 °F 93% 29.94 in - ESE 12.7 mph 21.9 mph 0.02 in   Unknown
10:56 AM 57.9 °F 55.9 °F 93% 29.93 in - East 17.3 mph 23.0 mph 0.08 in   Unknown
11:56 AM 57.9 °F 55.9 °F 93% 29.92 in - East 18.4 mph 25.3 mph 0.27 in   Unknown
12:56 PM 57.9 °F 57.0 °F 97% 29.90 in - East 15.0 mph - 0.44 in   Unknown
1:56 PM 59.0 °F 57.9 °F 96% 29.88 in - ESE 13.8 mph 23.0 mph 0.04 in   Unknown
2:56 PM 60.1 °F 59.0 °F 96% 29.87 in - ESE 8.1 mph 18.4 mph 0.04 in   Unknown
3:56 PM 60.1 °F 59.0 °F 96% 29.86 in - ESE 11.5 mph - 0.02 in   Unknown
4:56 PM 60.1 °F 59.0 °F 96% 29.86 in - East 11.5 mph 17.3 mph 0.01 in   Unknown
5:56 PM 60.1 °F 59.0 °F 96% 29.84 in - ESE 9.2 mph 18.4 mph N/A   Unknown
6:56 PM 60.1 °F 57.9 °F 93% 29.82 in - East 17.3 mph - N/A   Unknown
7:56 PM 60.1 °F 57.9 °F 93% 29.82 in - East 13.8 mph 19.6 mph N/A   Unknown
8:56 PM 60.1 °F 59.0 °F 96% 29.82 in - ESE 9.2 mph - 0.01 in   Unknown
9:56 PM 60.1 °F 59.0 °F 96% 29.80 in - East 10.4 mph - N/A   Unknown
10:56 PM 59.0 °F 59.0 °F 100% 29.78 in - ESE 6.9 mph - 0.05 in   Unknown
11:56 PM 60.1 °F 59.0 °F 96% 29.77 in - SE 4.6 mph - N/A   Unknown